Weather History for Price, UT

Change the Weather History Date:

Thursday, January 3, 2013

  Actual Average Record
Temperature  
Mean Temperature 10 °F -  
Max Temperature 21 °F 34 °F 51 °F (1981)
Min Temperature -2 °F 16 °F -11 °F (1974)
Degree Days  
Heating Degree Days 56    
Moisture  
Dew Point -3 °F    
Average Humidity 62    
Maximum Humidity 72    
Minimum Humidity 46    
Precipitation  
Precipitation 0.00 in - - ()
Sea Level Pressure  
Sea Level Pressure 30.59 in    
Wind  
Wind Speed 1 mph (NNE)    
Max Wind Speed 8 mph    
Max Gust Speed -    
Visibility 10 miles    
Events      
Averages and records for this station are not official NWS values.
T = Trace of Precipitation, MM = Missing Value Source: NWS Daily Summary

Daily Weather History Graph

Daily Weather History Graph

Search for Another Location

Airport:

Trip Planner

Search our weather history database for the weather conditions in past years. The results will help you decide how hot, cold, wet, or windy it might be!

Date:

Astronomy

Jan. 03, 2013 Rise Set
Actual Time 7:43 AM MST 5:11 PM MST
Civil Twilight 7:13 AM MST 5:41 PM MST
Nautical Twilight 6:40 AM MST 6:15 PM MST
Astronomical Twilight 6:07 AM MST 6:48 PM MST
Moon 11:49 PM MST (1/3) 10:58 AM MST (1/3)
Length of Visible Light 10h 28m
Length of Day
9h 27m
Waning Gibbous, 65% of the Moon is Illuminated
Jan 3
Waning Gibbous
Jan 4
Last Quarter
Jan 11
New
Jan 18
First Quarter
Jan 26
Full

Hourly Weather History & Observations

Time (MST) Temp. Windchill Dew Point Humidity Pressure Visibility Wind Dir Wind Speed Gust Speed Precip Events Conditions
12:53 AM 6.8 °F - -2.2 °F 67% 30.30 in 10.0 mi Calm Calm - N/A   Clear
1:53 AM -0.0 °F - -7.1 °F 72% 30.59 in 10.0 mi Calm Calm - N/A   Clear
2:53 AM -0.9 °F - -8.0 °F 72% 30.61 in 10.0 mi Calm Calm - N/A   Clear
3:53 AM 1.0 °F -10.3 °F -7.1 °F 69% 30.61 in 10.0 mi North 5.8 mph - N/A   Clear
4:53 AM 3.0 °F -10.5 °F -5.1 °F 69% 30.61 in 10.0 mi NNE 8.1 mph - N/A   Clear
5:53 AM 1.0 °F -6.7 °F -7.1 °F 69% 30.66 in 10.0 mi North 3.5 mph - N/A   Clear
6:53 AM 1.9 °F - -6.0 °F 69% 30.69 in 10.0 mi Calm Calm - N/A   Clear
7:53 AM -2.9 °F -15.0 °F -11.0 °F 68% 30.71 in 10.0 mi North 5.8 mph - N/A   Clear
8:53 AM 10.0 °F - -0.9 °F 61% 30.66 in 10.0 mi Calm Calm - N/A   Clear
9:53 AM 16.0 °F - -0.0 °F 49% 30.63 in 10.0 mi Calm Calm - N/A   Clear
10:53 AM 17.1 °F - 1.9 °F 52% 30.65 in 10.0 mi Calm Calm - N/A   Clear
11:53 AM 19.0 °F - 3.0 °F 50% 30.62 in 10.0 mi Calm Calm - N/A   Clear
12:53 PM 17.1 °F 11.7 °F 3.9 °F 56% 30.58 in 10.0 mi SW 3.5 mph - N/A   Clear
1:53 PM 19.0 °F - 3.0 °F 50% 30.58 in 10.0 mi Calm Calm - N/A   Clear
2:53 PM 21.0 °F - 3.0 °F 46% 30.58 in 10.0 mi Calm Calm - N/A   Clear
3:53 PM 19.9 °F 14.9 °F 3.0 °F 48% 30.57 in 10.0 mi ESE 3.5 mph - N/A   Clear
4:53 PM 19.4 °F - 1.4 °F 46% 30.30 in 10.0 mi Calm Calm - N/A   Clear
5:53 PM 12.0 °F - 1.0 °F 61% 30.61 in 10.0 mi Calm Calm - N/A   Clear
6:53 PM 8.1 °F 1.4 °F -2.0 °F 64% 30.63 in 10.0 mi NNW 3.5 mph - N/A   Clear
7:53 PM 7.0 °F - -0.9 °F 70% 30.63 in 10.0 mi Calm Calm - N/A   Clear
8:53 PM 5.0 °F - -4.0 °F 66% 30.58 in 10.0 mi Calm Calm - N/A   Clear
9:53 PM 1.9 °F - -6.0 °F 69% 30.59 in 10.0 mi Calm Calm - N/A   Clear
10:53 PM 1.9 °F -5.6 °F -6.0 °F 69% 30.59 in 10.0 mi East 3.5 mph - N/A   Clear
11:53 PM 1.0 °F - -7.1 °F 69% 30.59 in 10.0 mi Calm Calm - N/A   Clear